FENGYUN 1C DEB, 31442

Orbit data source: Space-Track

FENGYUN 1C DEB, 31442 is space debris in SSO originally from a launch on Mon, 10 May 1999 UTC launched from the Taiyaun Space Center, China (TSC). Fengyun 1C debris stems from the Chinese weather satellite Fengyun-1C, which was intentionally destroyed by a Chinese anti-satellite missile in 2007. This event dramatically increased the amount of space debris, with thousands of trackable fragments posing hazards to satellites and human spaceflight. The Fengyun 1C debris cloud has become a focal point in discussions about space sustainability and the need for international regulations to prevent the creation of new debris.

Loading next visibility...
Identifier
31442, 1999-025BUE
Orbit
SSO
Country
Flag of CNCN / PRC
Related business
Manufacturer
Unknown
Mission
Spacecraft
Bus & Motor
Unknown
Mass
Unknown
Launch date (UTC)
1999-05-10 (27 years ago)
Launch vehicle
Unknown
Launch site
Taiyaun Space Center, China (TSC)
Object type
Payload
Rocket body
Debris
Shape & HBR
Unknown shape, 0.1 m
Radar Cross Section
Small (<0.1 m²)

Expand to show TLE details & history
Last TLE update: 2 days ago

TLE from 2 days ago
0 FENGYUN 1C DEB
1 31442U 99025BUE 26234.95580416  .00000537  00000-0  19946-3 0  9991
2 31442  98.5198 322.4014 0077841 342.0550  17.7889 14.34451206  9906
Epoch: 2026-08-22T22:56Z
TLE epoch observation values (Epoch: 2026-08-22T22:56:21.479Z)
Latitude
-0.00009°
Longitude
7.05314°
Altitude
726.829 km
Speed
7.52 km/s
True Right ascension
21h 29m 36s
True Declination
0° 00' 00"
Sunlit
Object was in full shadow at epoch
Visualization orbit readout
Latitude
Unknown
Longitude
Unknown
Altitude
Unknown
Speed
Unknown
Apparent Right ascension
Unknown
Apparent Declination
Unknown
Sunlit
N/A
Visualization observer readout
Local Sidereal Time
04:58:05
Azimuth
Unknown
Elevation
Unknown
Doppler factor
Unknown
Orbital elements
Apogee altitude
829.694 km
Perigee altitude
718.348 km
Semi-major axis
7,152.158 km
Eccentricity
0.00778
Inclination
98.5198°
RAAN
322.4014°
Arg. of periapsis
342.055°
True anomaly
18.06396°
Mean anomaly
17.7889°
Eccentric anomaly
17.92617°
Mean motion
3.58829 °/min
Orbital period
100.33 mins
BSTAR
0.00019946
Loading maneuver chart data...
Computing Atmospheric mass density...

Documentation

Showing up to 5 results
|